• In Hungary
  • List of Countries
  • For 7 days
  • Water Temperature
  • Satellite Maps
  • Weather Map
  • News
  • Weather Widgets
  • user-avatar
    Login

    Hourly Weather Makovskie Vyselki

    Today, 23 June, Saturday

    Time Temperature Precipitation Wind Pressure Humidity
    00:00 +20°C° 0 mm 2 mps 740 mmHg 91%
    01:00 +19°C° 0 mm 2 mps 740 mmHg 91%
    02:00 +19°C° 0 mm 2 mps 740 mmHg 91%
    03:00 +19°C° 0 mm 2 mps 740 mmHg 91%
    04:00 +20°C° 0 mm 2 mps 740 mmHg 89%
    05:00 +21°C° 0 mm 1 mps 740 mmHg 88%
    06:00 +22°C° 0 mm 1 mps 740 mmHg 87%
    07:00 +23°C° 0.1 mm 2 mps 740 mmHg 83%
    08:00 +25°C° 0.1 mm 2 mps 740 mmHg 78%
    09:00 +26°C° 0.1 mm 2 mps 740 mmHg 74%
    10:00 +27°C° 0 mm 3 mps 740 mmHg 68%
    11:00 +28°C° 0 mm 4 mps 740 mmHg 63%
    12:00 +30°C° 0 mm 5 mps 740 mmHg 57%
    13:00 +30°C° 0 mm 5 mps 740 mmHg 56%
    14:00 +30°C° 0 mm 5 mps 739 mmHg 55%
    15:00 +30°C° 0 mm 5 mps 739 mmHg 54%
    16:00 +30°C° 0 mm 5 mps 739 mmHg 59%
    17:00 +30°C° 0 mm 4 mps 739 mmHg 64%
    18:00 +29°C° 0 mm 4 mps 739 mmHg 69%
    19:00 +27°C° 0 mm 4 mps 738 mmHg 72%
    20:00 +26°C° 0 mm 4 mps 738 mmHg 75%
    21:00 +23°C° 0 mm 4 mps 738 mmHg 78%
    22:00 +23°C° 0 mm 5 mps 738 mmHg 78%
    23:00 +22°C° 0 mm 5 mps 738 mmHg 77%

    Tomorrow, 24 June, Sunday

    Time Temperature Precipitation Wind Pressure Humidity
    00:00 +22°C° 0 mm 5 mps 738 mmHg 77%
    01:00 +22°C° 0 mm 5 mps 738 mmHg 76%
    02:00 +21°C° 0 mm 5 mps 738 mmHg 75%
    03:00 +21°C° 0 mm 5 mps 738 mmHg 74%
    04:00 +21°C° 0 mm 5 mps 738 mmHg 76%
    05:00 +21°C° 0 mm 5 mps 738 mmHg 78%
    06:00 +21°C° 0 mm 5 mps 738 mmHg 79%
    07:00 +22°C° 0 mm 5 mps 738 mmHg 76%
    08:00 +23°C° 0 mm 5 mps 738 mmHg 73%
    09:00 +25°C° 0 mm 5 mps 738 mmHg 70%
    10:00 +26°C° 0.2 mm 5 mps 738 mmHg 68%
    11:00 +26°C° 0.2 mm 5 mps 738 mmHg 65%
    12:00 +27°C° 0.2 mm 5 mps 739 mmHg 62%
    13:00 +26°C° 0.5 mm 4 mps 739 mmHg 66%
    14:00 +26°C° 0.5 mm 4 mps 739 mmHg 69%
    15:00 +25°C° 0.5 mm 3 mps 739 mmHg 72%
    16:00 +24°C° 0.8 mm 3 mps 739 mmHg 77%
    17:00 +22°C° 0.8 mm 3 mps 739 mmHg 82%
    18:00 +21°C° 0.8 mm 2 mps 740 mmHg 86%
    19:00 +19°C° 0.4 mm 2 mps 740 mmHg 89%
    20:00 +18°C° 0.4 mm 3 mps 740 mmHg 92%
    21:00 +17°C° 0.4 mm 3 mps 740 mmHg 94%
    22:00 +16°C° 0.1 mm 3 mps 740 mmHg 95%
    23:00 +14°C° 0.1 mm 3 mps 741 mmHg 95%

    Day after tomorrow, 25 June, Monday

    Time Temperature Precipitation Wind Pressure Humidity
    00:00 +14°C° 0.1 mm 3 mps 741 mmHg 95%
    01:00 +13°C° 0 mm 3 mps 741 mmHg 95%
    02:00 +12°C° 0 mm 3 mps 742 mmHg 95%
    03:00 +12°C° 0 mm 3 mps 742 mmHg 94%
    04:00 +12°C° 0 mm 3 mps 742 mmHg 93%
    05:00 +13°C° 0 mm 3 mps 743 mmHg 92%
    06:00 +13°C° 0 mm 3 mps 743 mmHg 90%
    07:00 +16°C° 0 mm 3 mps 743 mmHg 85%
    08:00 +17°C° 0 mm 3 mps 744 mmHg 79%
    09:00 +19°C° 0 mm 3 mps 744 mmHg 73%
    10:00 +20°C° 0 mm 3 mps 744 mmHg 68%
    11:00 +21°C° 0 mm 3 mps 744 mmHg 63%
    12:00 +22°C° 0 mm 3 mps 744 mmHg 59%
    13:00 +22°C° 0 mm 3 mps 744 mmHg 58%
    14:00 +22°C° 0 mm 3 mps 745 mmHg 57%
    15:00 +24°C° 0 mm 3 mps 745 mmHg 57%
    16:00 +24°C° 0 mm 2 mps 745 mmHg 59%
    17:00 +23°C° 0 mm 2 mps 745 mmHg 61%
    18:00 +23°C° 0 mm 2 mps 745 mmHg 64%
    19:00 +21°C° 0 mm 2 mps 745 mmHg 67%
    20:00 +19°C° 0 mm 2 mps 745 mmHg 71%
    21:00 +19°C° 0 mm 1 mps 746 mmHg 75%
    22:00 +17°C° 0 mm 2 mps 746 mmHg 77%
    23:00 +16°C° 0 mm 2 mps 746 mmHg 80%

    26 June, Tuesday

    Time Temperature Precipitation Wind Pressure Humidity
    00:00 +15°C° 0 mm 2 mps 746 mmHg 83%
    01:00 +15°C° 0 mm 2 mps 746 mmHg 85%
    02:00 +14°C° 0 mm 2 mps 746 mmHg 87%
    03:00 +14°C° 0 mm 1 mps 747 mmHg 89%
    04:00 +15°C° 0 mm 1 mps 747 mmHg 87%
    05:00 +15°C° 0 mm 1 mps 747 mmHg 86%
    06:00 +16°C° 0 mm 2 mps 747 mmHg 84%
    07:00 +18°C° 0 mm 2 mps 747 mmHg 79%
    08:00 +19°C° 0 mm 2 mps 748 mmHg 73%
    09:00 +21°C° 0 mm 2 mps 748 mmHg 68%
    10:00 +23°C° 0 mm 2 mps 748 mmHg 63%
    11:00 +24°C° 0 mm 2 mps 748 mmHg 59%
    12:00 +25°C° 0 mm 2 mps 748 mmHg 55%
    13:00 +25°C° 0 mm 2 mps 748 mmHg 53%
    14:00 +26°C° 0 mm 2 mps 747 mmHg 52%
    15:00 +26°C° 0 mm 2 mps 747 mmHg 51%
    16:00 +26°C° 0 mm 2 mps 747 mmHg 55%
    17:00 +26°C° 0 mm 2 mps 747 mmHg 59%
    18:00 +26°C° 0 mm 2 mps 747 mmHg 63%
    19:00 +24°C° 0 mm 2 mps 747 mmHg 66%
    20:00 +21°C° 0 mm 2 mps 747 mmHg 69%
    21:00 +19°C° 0 mm 2 mps 747 mmHg 73%
    22:00 +18°C° 0 mm 2 mps 747 mmHg 73%
    23:00 +18°C° 0 mm 2 mps 747 mmHg 73%

    27 June, Wednesday

    Time Temperature Precipitation Wind Pressure Humidity
    00:00 +17°C° 0 mm 2 mps 747 mmHg 73%
    01:00 +17°C° 0 mm 2 mps 747 mmHg 74%
    02:00 +16°C° 0 mm 2 mps 747 mmHg 76%
    03:00 +16°C° 0 mm 2 mps 748 mmHg 78%
    04:00 +16°C° 0 mm 2 mps 748 mmHg 79%
    05:00 +16°C° 0 mm 2 mps 748 mmHg 79%
    06:00 +17°C° 0 mm 2 mps 748 mmHg 80%
    07:00 +19°C° 0 mm 3 mps 748 mmHg 75%
    08:00 +20°C° 0 mm 3 mps 748 mmHg 71%
    09:00 +22°C° 0 mm 3 mps 748 mmHg 66%
    10:00 +24°C° 0 mm 3 mps 748 mmHg 62%
    11:00 +25°C° 0 mm 4 mps 748 mmHg 58%
    12:00 +26°C° 0 mm 4 mps 748 mmHg 55%
    13:00 +26°C° 0 mm 4 mps 747 mmHg 54%
    14:00 +27°C° 0 mm 4 mps 747 mmHg 54%
    15:00 +27°C° 0 mm 4 mps 747 mmHg 53%
    16:00 +27°C° 0 mm 3 mps 747 mmHg 58%
    17:00 +26°C° 0 mm 3 mps 747 mmHg 62%
    18:00 +26°C° 0 mm 2 mps 747 mmHg 67%
    19:00 +24°C° 0.1 mm 2 mps 747 mmHg 68%
    20:00 +22°C° 0.1 mm 3 mps 747 mmHg 70%
    21:00 +21°C° 0.1 mm 3 mps 747 mmHg 72%
    22:00 +21°C° 0 mm 4 mps 747 mmHg 70%
    23:00 +20°C° 0 mm 4 mps 746 mmHg 69%

    28 June, Thursday

    Time Temperature Precipitation Wind Pressure Humidity
    00:00 +20°C° 0 mm 5 mps 746 mmHg 68%
    01:00 +19°C° 0 mm 4 mps 747 mmHg 70%
    02:00 +19°C° 0 mm 3 mps 747 mmHg 72%
    03:00 +18°C° 0 mm 3 mps 747 mmHg 75%
    04:00 +18°C° 0 mm 3 mps 747 mmHg 76%
    05:00 +18°C° 0 mm 3 mps 747 mmHg 77%
    06:00 +18°C° 0 mm 4 mps 747 mmHg 79%
    07:00 +19°C° 0.1 mm 4 mps 747 mmHg 77%
    08:00 +20°C° 0.1 mm 4 mps 747 mmHg 76%
    09:00 +21°C° 0.1 mm 4 mps 747 mmHg 74%
    10:00 +22°C° 0 mm 4 mps 747 mmHg 74%
    11:00 +22°C° 0 mm 4 mps 747 mmHg 74%
    12:00 +24°C° 0 mm 3 mps 747 mmHg 74%
    13:00 +25°C° 0 mm 4 mps 747 mmHg 70%
    14:00 +25°C° 0 mm 4 mps 747 mmHg 65%
    15:00 +26°C° 0 mm 5 mps 747 mmHg 61%
    16:00 +26°C° 0.1 mm 4 mps 747 mmHg 64%
    17:00 +26°C° 0.1 mm 4 mps 747 mmHg 66%
    18:00 +25°C° 0.1 mm 4 mps 747 mmHg 68%
    19:00 +24°C° 0.2 mm 3 mps 747 mmHg 72%
    20:00 +21°C° 0.2 mm 3 mps 746 mmHg 75%
    21:00 +20°C° 0.2 mm 3 mps 746 mmHg 79%
    22:00 +19°C° 0.1 mm 3 mps 746 mmHg 79%
    23:00 +19°C° 0.1 mm 3 mps 746 mmHg 80%
    Show more